Jonesboro, AR

12:41 AM CST on November 25, 2017 (GMT -0600)
Jonesboro Municipal

Weather History for KJBR - October, 2012

Change the Weather History Date:

Saturday, October 13, 2012

  Actual Average Record
Temperature  
Mean Temperature 71 °F 62 °F  
Max Temperature 82 °F 74 °F 91 °F (1928)
Min Temperature 60 °F 51 °F 25 °F (1917)
Degree Days  
Heating Degree Days 0 5  
Month to date heating degree days 81 45  
Since 1 July heating degree days 87 63  
Cooling Degree Days 6 2  
Month to date cooling degree days 11 34  
Year to date cooling degree days 2316 1805  
Growing Degree Days 21 (Base 50)    
Moisture  
Dew Point 62 °F    
Average Humidity 76    
Maximum Humidity 100    
Minimum Humidity 51    
Precipitation  
Precipitation 0.00 in 0.12 in 2.38 in (1943)
Month to date precipitation 1.41 1.75  
Year to date precipitation 26.37 35.92  
Snow  
Snow 0.00 in - - ()
Month to date snowfall 0.0  
Snow Depth 0.00 in    
Sea Level Pressure  
Sea Level Pressure 30.11 in    
Wind  
Wind Speed 9 mph (SSE)    
Max Wind Speed 22 mph    
Max Gust Speed 29 mph    
Visibility 4 miles    
Events Fog    
T = Trace of Precipitation, MM = Missing Value Source: NWS Daily Summary

Daily Weather History Graph

Daily Weather History Graph

Search for Another Location

Airport or City:

Trip Planner

Search our weather history database for the weather conditions in past years. The results will help you decide how hot, cold, wet, or windy it might be!

Date:

Astronomy

Oct. 13, 2012 Rise Set
Actual Time 7:07 AM CDT 6:28 PM CDT
Civil Twilight 6:42 AM CDT 6:54 PM CDT
Nautical Twilight 6:12 AM CDT 7:24 PM CDT
Astronomical Twilight 5:42 AM CDT 7:53 PM CDT
Moon 5:01 AM CDT (10/13) 5:10 PM CDT (10/13)
Length of Visible Light 12h 12m
Length of Day
11h 20m
Waning Crescent, 5% of the Moon is Illuminated
Oct 13
Waning Crescent
Oct 15
New
Oct 21
First Quarter
Oct 29
Full
Nov 6
Last Quarter

Hourly Weather History & Observations

Time (CDT) Temp. Heat Index Dew Point Humidity Pressure Visibility Wind Dir Wind Speed Gust Speed Precip Events Conditions
12:03 AM 60.8 °F - 59.0 °F 94% 30.22 in 0.8 mi East 5.8 mph - N/A   Mist
12:31 AM 60.8 °F - 59.0 °F 94% 30.22 in 0.5 mi East 5.8 mph - N/A Fog Fog
12:53 AM 60.1 °F - 59.0 °F 96% 30.21 in 0.5 mi East 4.6 mph - N/A Fog Fog
1:09 AM 60.8 °F - 59.0 °F 94% 30.21 in 0.2 mi East 4.6 mph - N/A Fog Fog
1:53 AM 60.1 °F - 59.0 °F 96% 30.20 in 0.2 mi East 4.6 mph - N/A Fog Fog
2:53 AM 61.0 °F - 59.0 °F 93% 30.18 in 0.2 mi East 3.5 mph - N/A Fog Fog
3:53 AM 61.0 °F - 60.1 °F 97% 30.16 in 0.2 mi ESE 6.9 mph - N/A Fog Fog
4:39 AM 60.8 °F - 60.8 °F 100% 30.15 in 0.2 mi ESE 3.5 mph - N/A Fog Fog
4:53 AM 61.0 °F - 60.1 °F 97% 30.15 in 0.2 mi ESE 3.5 mph - N/A Fog Fog
5:04 AM 60.8 °F - 60.8 °F 100% 30.16 in 0.5 mi ESE 5.8 mph - N/A Fog Fog
5:29 AM 60.8 °F - 60.8 °F 100% 30.16 in 0.2 mi ESE 4.6 mph - N/A Fog Fog
5:53 AM 61.0 °F - 60.1 °F 97% 30.16 in 0.2 mi ESE 3.5 mph - N/A Fog Fog
6:53 AM 62.1 °F - 61.0 °F 96% 30.17 in 0.2 mi Calm Calm - N/A Fog Fog
7:53 AM 62.1 °F - 61.0 °F 96% 30.17 in 0.2 mi Calm Calm - N/A Fog Fog
8:53 AM 64.0 °F - 63.0 °F 96% 30.16 in 0.2 mi South 6.9 mph - N/A Fog Fog
9:13 AM 64.4 °F - 64.4 °F 100% 30.17 in 0.2 mi SSE 6.9 mph - N/A Fog Fog
9:36 AM 64.4 °F - 64.4 °F 100% 30.16 in 0.5 mi South 6.9 mph - N/A Fog Fog
9:45 AM 66.2 °F - 64.4 °F 94% 30.17 in 1.0 mi South 10.4 mph - N/A   Overcast
9:53 AM 66.0 °F - 64.9 °F 96% 30.16 in 2.5 mi South 10.4 mph - N/A   Overcast
10:01 AM 66.2 °F - 64.4 °F 94% 30.16 in 3.0 mi South 9.2 mph - N/A   Overcast
10:53 AM 71.1 °F - 66.0 °F 84% 30.13 in 7.0 mi South 8.1 mph - N/A   Scattered Clouds
11:53 AM 77.0 °F - 64.9 °F 66% 30.10 in 10.0 mi SW 18.4 mph 26.5 mph N/A   Partly Cloudy
12:53 PM 79.0 °F - 64.0 °F 60% 30.08 in 10.0 mi SSW 18.4 mph 25.3 mph N/A   Scattered Clouds
1:53 PM 81.0 °F 82.7 °F 64.9 °F 58% 30.04 in 10.0 mi SSW 15.0 mph - N/A   Mostly Cloudy
2:53 PM 82.0 °F 83.1 °F 63.0 °F 52% 30.01 in 10.0 mi South 16.1 mph 26.5 mph N/A   Mostly Cloudy
3:53 PM 81.0 °F 82.2 °F 63.0 °F 54% 30.00 in 10.0 mi South 15.0 mph 24.2 mph N/A   Mostly Cloudy
4:53 PM 81.0 °F 82.2 °F 63.0 °F 54% 29.99 in 10.0 mi South 15.0 mph - N/A   Partly Cloudy
5:53 PM 77.0 °F - 62.1 °F 60% 29.97 in 10.0 mi South 10.4 mph - N/A   Clear
7:53 PM 72.0 °F - 62.1 °F 71% 29.97 in 10.0 mi South 5.8 mph - N/A   Unknown
8:53 PM 71.1 °F - 62.1 °F 73% 29.97 in 10.0 mi South 6.9 mph - N/A   Partly Cloudy
9:53 PM 71.1 °F - 61.0 °F 70% 29.96 in 10.0 mi South 9.2 mph - N/A   Clear
10:53 PM 70.0 °F - 61.0 °F 73% 29.93 in 10.0 mi South 11.5 mph - N/A   Clear
11:53 PM 71.6 °F - 62.6 °F 73% 29.92 in 10.0 mi South 12.7 mph - N/A   Clear